This demonstration page uses our WeatherBlox Daily Observations layout. Learn more.

Hourly Observations for November 5, 2016

Temp ( °F °C ) Dew Point ( °F °C ) Humidity (%) Winds ( mph kmh ) Pressure ( in mb ) Visibility ( mi km ) Precip ( " mm )
12:15 am 00:15 Clear 50 10 37 3 62 62 NNW 5 7 30.33 1027 10 16.09344 0 0
12:35 am 00:35 Clear 45 7 37 3 76 76 NW 6 9 30.33 1027 10 16.09344 0 0
12:55 am 00:55 Clear 50 10 37 3 62 62 NNW 8 13 30.33 1027 10 16.09344 0 0
1:15 am 01:15 Clear 46 8 37 3 71 71 NNW 3 6 30.33 1027 10 16.09344 0 0
1:35 am 01:35 Clear 46 8 37 3 71 71 NW 5 7 30.33 1027 10 16.09344 0 0
1:55 am 01:55 Clear 48 9 37 3 66 66 Calm 30.33 1027 10 16.09344 0 0
2:15 am 02:15 Clear 46 8 37 3 71 71 Calm 30.33 1027 10 16.09344 0 0
2:35 am 02:35 Clear 50 10 39 4 67 67 NW 12 19 30.33 1027 10 16.09344 0 0
2:55 am 02:55 Clear 45 7 37 3 76 76 WNW 8 13 30.33 1027 10 16.09344 0 0
3:15 am 03:15 Clear 45 7 37 3 76 76 NW 8 13 30.33 1027 10 16.09344 0 0
3:35 am 03:35 Clear 46 8 37 3 71 71 NNW 6 9 30.36 1028 10 16.09344 0 0
3:55 am 03:55 Clear 45 7 37 3 76 76 NW 6 9 30.36 1028 10 16.09344 0 0
4:15 am 04:15 Clear 43 6 37 3 81 81 NW 6 9 30.36 1028 10 16.09344 0 0
4:35 am 04:35 Clear 43 6 37 3 81 81 NW 3 6 30.36 1028 10 16.09344 0 0
4:55 am 04:55 Clear 43 6 37 3 81 81 Calm 30.36 1028 10 16.09344 0 0
5:15 am 05:15 Clear 43 6 37 3 81 81 Calm 30.36 1028 10 16.09344 0 0
5:35 am 05:35 Clear 43 6 37 3 81 81 Calm 30.36 1028 10 16.09344 0 0
5:55 am 05:55 Clear 45 7 37 3 76 76 WNW 7 11 30.36 1028 10 16.09344 0 0
6:15 am 06:15 Clear 43 6 37 3 81 81 NW 3 6 30.36 1028 10 16.09344 0 0
6:35 am 06:35 Clear 41 5 37 3 87 87 NNW 5 7 30.36 1028 10 16.09344 0 0
6:55 am 06:55 Clear 39 4 37 3 93 93 Calm 30.36 1028 10 16.09344 0 0
7:15 am 07:15 Clear 39 4 37 3 93 93 W 5 7 30.36 1028 10 16.09344 0 0
7:35 am 07:35 Clear 41 5 37 3 87 87 W 3 6 30.36 1028 10 16.09344 0 0
7:55 am 07:55 Sunny 39 4 37 3 93 93 NW 5 7 30.36 1028 10 16.09344 0 0
8:15 am 08:15 Sunny 41 5 37 3 87 87 NW 7 11 30.39 1029 10 16.09344 0 0
8:35 am 08:35 Sunny 46 8 41 5 82 82 NNW 5 7 30.39 1029 10 16.09344 0 0
8:55 am 08:55 Sunny 50 10 41 5 71 71 NW 8 13 30.39 1029 10 16.09344 0 0
9:15 am 09:15 Sunny 52 11 43 6 72 72 NW 6 9 30.39 1029 10 16.09344 0 0
9:35 am 09:35 Sunny 52 11 43 6 72 72 NW 7 11 30.39 1029 10 16.09344 0 0
9:55 am 09:55 Sunny 54 12 43 6 67 67 NW 10 17 30.39 1029 10 16.09344 0 0
10:15 am 10:15 Sunny 55 13 43 6 63 63 NW 13 20 30.36 1028 10 16.09344 0 0
10:35 am 10:35 Sunny 55 13 41 5 59 59 NW 10 17 30.36 1028 10 16.09344 0 0
10:55 am 10:55 Sunny 57 14 41 5 55 55 NNW 12 19 30.36 1028 10 16.09344 0 0
11:15 am 11:15 Sunny 59 15 41 5 51 51 WNW 10 17 30.36 1028 10 16.09344 0 0
11:35 am 11:35 Sunny 59 15 41 5 51 51 W 6 9 30.36 1028 10 16.09344 0 0
11:55 am 11:55 Sunny 61 16 43 6 52 52 NW 7 11 30.33 1027 10 16.09344 0 0
12:15 pm 12:15 Sunny 63 17 43 6 49 49 WNW 12 19 30.33 1027 10 16.09344 0 0
12:35 pm 12:35 Sunny 63 17 43 6 49 49 NW 9 15 30.33 1027 10 16.09344 0 0
12:55 pm 12:55 Sunny 63 17 43 6 49 49 W 9 15 30.33 1027 10 16.09344 0 0
1:15 pm 13:15 Sunny 64 18 45 7 49 49 WNW 12 19 30.3 1026 10 16.09344 0 0
1:35 pm 13:35 Sunny 64 18 45 7 49 49 WNW 13 20 30.3 1026 10 16.09344 0 0
1:55 pm 13:55 Sunny 64 18 43 6 46 46 W 8 13 30.3 1026 10 16.09344 0 0
2:15 pm 14:15 Sunny 64 18 43 6 46 46 WNW 12 19 30.27 1025 10 16.09344 0 0
2:35 pm 14:35 Sunny 66 19 43 6 43 43 WNW 10 17 30.27 1025 10 16.09344 0 0
2:55 pm 14:55 Sunny 66 19 41 5 40 40 NNW 8 13 30.27 1025 10 16.09344 0 0
3:15 pm 15:15 Sunny 66 19 43 6 43 43 W 9 15 30.27 1025 10 16.09344 0 0
3:35 pm 15:35 Sunny 66 19 43 6 43 43 W 10 17 30.27 1025 10 16.09344 0 0
3:55 pm 15:55 Sunny 66 19 41 5 40 40 W 10 17 30.27 1025 10 16.09344 0 0
4:15 pm 16:15 Sunny 64 18 41 5 43 43 W 10 17 30.24 1024 10 16.09344 0 0
4:35 pm 16:35 Sunny 64 18 41 5 43 43 WNW 10 17 30.24 1024 10 16.09344 0 0
4:55 pm 16:55 Sunny 64 18 41 5 43 43 W 9 15 30.24 1024 10 16.09344 0 0
5:15 pm 17:15 Sunny 64 18 41 5 43 43 WNW 13 20 30.24 1024 10 16.09344 0 0
5:35 pm 17:35 Sunny 63 17 41 5 45 45 W 8 13 30.24 1024 10 16.09344 0 0
5:55 pm 17:55 Sunny 63 17 41 5 45 45 Calm 30.24 1024 10 16.09344 0 0
6:15 pm 18:15 Clear 61 16 41 5 48 48 Calm 30.24 1024 10 16.09344 0 0
6:35 pm 18:35 Clear 57 14 41 5 55 55 SSW 9 15 30.24 1024 10 16.09344 0 0
6:55 pm 18:55 Clear 55 13 41 5 59 59 SSW 8 13 30.24 1024 10 16.09344 0 0
7:15 pm 19:15 Clear 52 11 43 6 72 72 SSW 3 6 30.3 1026 10 16.09344 0 0
7:35 pm 19:35 Clear 54 12 43 6 67 67 SSW 5 7 30.3 1026 10 16.09344 0 0
7:55 pm 19:55 Clear 52 11 43 6 72 72 SW 5 7 30.3 1026 10 16.09344 0 0
8:15 pm 20:15 Clear 50 10 41 5 71 71 SW 5 7 30.3 1026 10 16.09344 0 0
8:35 pm 20:35 Clear 50 10 41 5 71 71 SW 5 7 30.3 1026 10 16.09344 0 0
8:55 pm 20:55 Clear 46 8 43 6 87 87 SW 3 6 30.3 1026 10 16.09344 0 0
9:15 pm 21:15 Clear 52 11 43 6 72 72 SSW 6 9 30.3 1026 10 16.09344 0 0
9:35 pm 21:35 Clear 48 9 41 5 76 76 WSW 3 6 30.3 1026 10 16.09344 0 0
9:55 pm 21:55 Clear 48 9 41 5 76 76 W 5 7 30.3 1026 10 16.09344 0 0
10:15 pm 22:15 Clear 46 8 43 6 87 87 Calm 30.3 1026 10 16.09344 0 0
10:35 pm 22:35 Clear 46 8 41 5 82 82 Calm 30.3 1026 10 16.09344 0 0
10:55 pm 22:55 Clear 48 9 41 5 76 76 N 3 6 30.3 1026 10 16.09344 0 0
11:15 pm 23:15 Clear 50 10 41 5 71 71 N 3 6 30.3 1026 10 16.09344 0 0
11:35 pm 23:35 Clear 50 10 41 5 71 71 N 3 6 30.3 1026 10 16.09344 0 0
11:55 pm 23:55 Clear 50 10 41 5 71 71 Calm 30.3 1026 10 16.09344 0 0

Powered by AerisWeather